Regional Weather Roundup
Issued by NWS

Home | Current Version | Previous Version | Text Only | Print | Product List | Glossary On
Versions: 1 2 3 4 5 6 7 8 9 10 11 12 13 14 15 16 17 18 19 20 21 22 23 24 25 26 27 28 29 30 31 32 33 34 35 36 37 38 39 40 41 42 43 44 45 46 47 48 49 50
000
ASUS46 KPQR 030910
RWROR

OREGON REGIONAL WEATHER ROUNDUP
NATIONAL WEATHER SERVICE PORTLAND OR
200 AM PDT MON AUG 03 2015

NOTE: "FAIR" INDICATES FEW OR NO CLOUDS BELOW 12,000 FEET WITH
NO SIGNIFICANT WEATHER AND/OR OBSTRUCTIONS TO VISIBILITY.

ORZ001>013-031000-
NORTHWEST OREGON


CITY           SKY/WX    TMP DP  RH WIND       PRES   REMARKS
ASTORIA        MOCLDY    59  57  93 NW15      29.93F
NEWPORT        CLOUDY    55  54  94 S8        29.97R FOG
PORTLAND       CLOUDY    71  61  70 CALM      29.89S
VANCOUVER WA   CLOUDY    69  58  67 CALM      29.89S
SCAPPOOSE      CLOUDY    65  59  81 SE5       29.88S
HILLSBORO      CLOUDY    67  58  72 CALM      29.89S
AURORA           N/A     68  57  68 CALM      29.90S
MCMINNVILLE    CLOUDY    69  57  65 CALM      29.90R
SALEM          CLOUDY    69  57  65 S5        29.88F
CORVALLIS      CLOUDY    63  55  77 S7        29.93R
EUGENE         CLOUDY    66  57  72 SW12      29.93R
$$

ORZ021-028-031000-
SOUTHWEST OREGON


CITY           SKY/WX    TMP DP  RH WIND       PRES   REMARKS
NORTH BEND     CLOUDY    57  55  94 N3        29.95S
BROOKINGS      CLOUDY    57  57 100 CALM      29.95F
ROSEBURG       CLOUDY    67  59  75 CALM      29.92F
SEXTON SUMMIT  CLOUDY    67  50  54 NE3       30.02F HAZE
MEDFORD        CLOUDY    71  60  68 CALM      29.91S HAZE
$$

ORZ014>016-041-031000-
COLUMBIA GORGE


CITY           SKY/WX    TMP DP  RH WIND       PRES   REMARKS
TROUTDALE      CLOUDY    68  58  70 CALM      29.88S
THE DALLES     PTCLDY    77  52  41 NW9       29.77F
$$

ORZ029>031-041-044-049-050-061>064-502-503-505>511-031000-
EASTERN OREGON


CITY           SKY/WX    TMP DP  RH WIND       PRES   REMARKS
REDMOND        MOCLDY    71  43  36 CALM      29.96R
BEND           CLOUDY    73  46  38 S8        29.99R
PRINEVILLE     MOCLDY    75  45  33 W8        29.96S
KLAMATH FALLS  CLOUDY    61  53  75 S3        30.06F
LAKEVIEW       CLOUDY    57  54  88 N7        30.07F
HERMISTON      MOCLDY    75  44  33 SW6       29.75S
PENDLETON      MOCLDY    71  38  29 SE6       29.80F
JOHN DAY       CLOUDY    74  37  25 W8        29.96S
MEACHAM        MOCLDY    52  38  58 CALM      29.96F
LA GRANDE      CLOUDY    79  36  21 NW20      29.85F
BAKER CITY     MOCLDY    70  33  25 CALM      29.89S
BURNS          CLOUDY    69  29  22 SW9       29.99S
ROME             N/A     71  51  49 S18G25    29.98S
ONTARIO        PTCLDY    81  43  26 SW9       29.77F
$$


USA.gov is the U.S. government's official web portal to all federal, state and local government web resources and services.